Location: Unspecified
(0.0000°N, 0.0000°E)
Time: 04:55:29
(UTC+00:00)

Fuji - Pass Details

Date: 08 December 2022
Orbit: 1479 x 1496 km, 50.0° (Epoch: 28 January)

Event Time Altitude Azimuth Distance (km) Brightness Sun altitude
Rises 05:09:33 0° 225° (SW) 4,623 ? -9.7°
Reaches altitude 10° 05:12:37 10° 228° (SW) 3,640 ? -9.0°
Maximum altitude 05:21:35 62° 306° (NW) 1,647 ? -7.0°
Drops below altitude 10° 05:30:32 10° 26° (NNE) 3,619 ? -4.9°
Sets 05:33:35 0° 29° (NNE) 4,595 ? -4.2°
